Meath Environmental Platform

Observations for Trim Patrick St

Time AQI Temp °C Hum % Pres Pa CO μg/m³ H₂S μg/m³ NO μg/m³ NO₂ μg/m³ O₃ μg/m³ SO₂ μg/m³ PM1 μg/m³ PM2.5 μg/m³ PM10 μg/m³
Sunday 9 August 2026
06:17 2 18.1 72 36,556 0.09 7.34 1.71 30.75 52.46 0.59 5.43 8.62 9.48
06:16 2 18.1 72 35,921 0.07 5.88 1.63 19.47 36.44 1.24 6.29 10.08 11.09
06:15 2 18.1 72 35,075 0.07 6.92 1.53 28.33 55.15 0.92 7.14 11.49 12.63
06:14 2 18.2 72 33,947 0.08 6.61 1.48 30.17 40.89 0.98 6.29 9.35 10.28
06:13 2 18.2 71 32,442 0.06 4.91 1.62 13.19 38.21 1.46 5.43 10.09 11.1
06:12 2 18.2 72 30,436 0.06 7.84 1.63 31.94 53.68 0.62 5.43 10.08 11.09
06:11 2 18.2 71 27,761 0.08 5.77 1.61 26.15 39.28 0.2 4.57 8.67 9.54
06:10 2 18.2 71 24,195 0.07 6.48 1.81 29.02 53.42 1.18 6.29 10.83 11.92
06:09 2 18.2 71 19,439 0.07 3.75 1.83 15.63 42.73 1.05 5.43 9.4 10.34
06:08 2 18.2 71 15,742 0.07 4.96 1.85 25.03 44.12 0.7 6.29 10.12 11.13
06:07 2 18.2 71 11,753 0.07 3.36 1.86 12.82 38.41 1.04 5.43 10.85 11.93
06:06 2 18.2 71 9,048 0.06 4.54 1.89 21.67 40.71 0.67 5.43 10.14 11.15
06:03 2 18.2 71 114,146 0.06 3.49 1.83 12.68 38.9 1.04 5.43 10.15 11.16
06:02 2 18.2 70 111,983 0.08 5.8 1.95 28.37 53.29 0.98 7.14 11.62 12.78
05:58 2 18.2 70 105,834 0.07 1.92 1.81 12.02 38.92 1.32 4.57 8.72 9.59
05:57 2 18.2 70 104,510 0.07 3.6 1.65 14.47 37.51 0.77 5.43 9.44 10.38
05:56 2 18.3 70 104,758 0.07 4.07 1.7 22.46 44.52 0.48 6.29 11.61 12.77
05:55 2 18.2 70 103,036 0.06 3.78 1.72 21.31 40.09 0.78 5.43 9.46 10.4
05:54 2 18.3 70 101,396 0.06 4.8 1.65 19.29 46.18 0.68 6.29 11.61 12.77
05:53 2 18.3 70 99,608 0.06 4.77 1.63 25.02 49.85 0.57 6.29 10.19 11.21